Wind_Speed
43 41 42 38 36 41 44 42 44 46 47 43 47 50 52 52 50 51 51 52 53 54 55 55 57 58 60 62 63 64 66 67 66 61 57 53 52 50
50 50 38 42 40 41 41 44 45 46 51 51 53 53 54 51 50 51 52 54 55 56 57 59 61 62 63 64 64 64 62 58 52 49 47 45 44 43
56 48 42 42 43 46 43 44 47 49 53 57 55 54 53 52 50 52 54 56 56 58 60 61 62 63 63 63 61 57 51 47 45 44 43 42 43 42
51 39 37 45 48 42 44 47 50 53 54 54 54 53 53 52 53 55 56 57 60 60 60 58 59 59 58 54 50 48 45 42 43 44 46 46 46 44
50 48 41 43 44 43 46 46 49 50 50 52 53 53 54 54 56 57 59 60 59 58 55 54 53 51 47 45 45 45 45 44 44 45 47 46 45 44
47 41 36 37 37 40 43 46 47 47 48 50 52 54 55 55 58 60 62 60 59 54 46 46 45 41 40 43 44 44 43 42 43 45 46 45 44 43
36 29 32 35 39 42 41 43 45 47 50 52 54 55 57 58 59 60 60 59 54 47 39 38 40 39 38 38 39 39 40 42 45 47 46 46 45 43
27 30 35 38 38 39 41 44 48 51 52 54 56 56 57 57 56 56 56 54 50 40 36 35 37 35 35 37 35 35 38 42 44 44 45 45 43 43
30 33 35 36 37 40 44 46 49 51 52 54 55 55 54 52 54 51 48 45 43 39 38 36 35 35 35 37 35 35 37 40 40 42 44 44 43 43
31 34 35 37 40 43 46 49 51 51 50 52 51 49 49 47 45 44 43 43 43 39 36 41 39 39 39 36 34 33 35 35 37 40 42 42 41 41
32 34 37 40 43 46 49 51 51 49 49 48 45 43 41 38 37 39 40 42 42 40 32 41 41 43 41 36 32 29 28 30 32 34 37 39 41 42
33 37 41 44 46 47 49 51 51 49 46 40 35 32 30 30 33 36 39 42 43 45 36 43 41 43 46 39 36 32 29 29 30 31 35 37 39 41
35 38 41 45 47 49 49 49 46 42 38 34 29 26 27 28 29 31 34 38 41 42 37 43 43 42 44 47 42 35 32 29 29 29 30 33 36 39
40 42 45 47 48 46 43 40 36 33 29 26 25 25 26 27 28 31 32 33 36 39 35 37 43 42 44 45 45 37 33 30 30 27 28 29 32 35
44 45 45 44 41 38 33 29 25 22 21 21 22 24 26 27 28 30 31 33 33 32 33 34 37 39 41 43 46 41 37 30 28 29 29 30 30 31
42 40 39 36 31 25 21 19 18 19 19 21 22 24 27 28 29 32 32 32 31 27 26 29 33 37 40 40 42 39 34 38 30 29 32 30 28 28
36 32 27 23 19 17 16 16 17 19 20 21 23 25 26 27 28 29 31 30 30 29 25 25 28 32 34 37 38 35 33 28 26 29 31 30 27 26
28 22 18 13 11 11 12 14 17 17 19 21 23 25 26 27 27 27 30 31 31 30 29 29 30 31 30 29 34 31 25 30 29 29 29 33 28 25
18 12 10 9 10 11 12 13 13 16 18 20 22 24 26 26 29 30 31 32 32 32 30 30 30 34 38 38 28 29 38 35 36 34 32 31 33 29
9 8 8 9 10 11 12 13 14 16 18 20 21 23 26 29 30 31 33 34 34 33 31 30 30 32 36 39 39 30 28 34 34 34 33 32 31 29
7 7 8 10 10 11 13 14 15 16 18 20 22 24 26 29 31 33 34 34 35 34 33 31 30 31 33 33 34 30 26 24 28 32 31 31 28 24
6 8 9 10 11 12 14 15 16 18 19 21 23 25 27 30 33 35 36 37 35 35 34 33 31 32 31 31 33 32 27 22 29 30 27 25 27 29
7 9 10 11 12 14 15 16 18 19 21 22 23 25 28 31 34 36 37 36 35 35 36 35 32 31 30 30 31 30 25 29 32 27 28 29 25 25
Wind_Direction
273 257 276 268 263 274 269 274 278 283 285 290 296 298 297 296 296 295 294 294 294 294 294 294 293 293 291 290 290 289 288 288 287 287 285 283 282 279
258 268 259 275 261 270 272 274 279 284 289 295 298 297 296 296 296 296 295 295 295 295 295 295 295 294 292 291 290 288 286 286 284 283 281 280 280 278
259 259 262 267 271 269 270 276 280 284 289 293 295 297 297 298 298 298 298 297 297 297 296 295 295 293 292 291 290 288 285 284 282 281 280 279 278 278
258 256 265 265 265 266 273 275 280 287 290 294 296 296 298 299 300 299 297 298 298 297 297 297 295 293 291 289 288 286 284 282 280 281 279 278 279 277
253 267 260 265 263 270 280 287 288 291 295 294 295 297 299 300 298 297 298 297 297 297 298 296 292 289 287 287 284 284 284 283 283 282 281 281 280 279
262 258 262 271 283 284 286 289 294 293 293 294 297 298 299 299 298 299 298 298 297 298 298 293 288 286 287 284 283 284 285 285 284 282 282 283 284 283
256 277 281 282 285 288 296 293 294 295 297 299 299 299 300 300 301 299 299 299 299 301 297 290 288 287 284 282 282 284 284 282 281 282 284 285 284 282
276 280 284 287 294 293 295 298 299 299 300 301 300 302 302 302 300 301 301 301 302 302 298 295 290 287 286 283 283 282 280 279 280 283 284 282 282 280
280 287 292 294 298 298 297 298 299 299 301 301 302 304 303 302 302 303 302 302 300 303 307 299 297 292 290 289 294 292 288 287 287 285 281 280 279 278
294 293 295 299 298 299 300 299 297 300 302 301 304 302 300 301 301 301 302 303 304 308 310 302 302 298 297 298 298 293 290 291 287 283 281 281 279 278
293 299 300 299 302 301 298 298 302 305 303 304 303 303 303 304 303 302 303 302 303 304 312 301 304 302 300 302 299 293 293 286 281 280 279 279 279 278
302 303 303 301 299 301 302 303 303 304 304 303 303 302 301 301 301 302 304 306 308 308 318 306 307 306 305 306 304 310 304 298 292 286 281 278 278 277
301 300 302 302 302 302 304 304 304 305 306 308 309 308 306 306 305 304 305 306 307 308 316 308 308 309 308 309 311 315 311 306 297 287 282 280 276 275
307 306 304 304 304 304 304 305 305 307 308 311 313 314 314 315 312 310 309 310 310 312 313 306 305 308 307 308 310 314 315 311 303 297 287 280 277 275
306 307 307 307 308 308 306 305 308 310 314 318 321 321 320 321 322 319 318 314 314 313 309 306 304 303 304 307 310 316 320 312 313 302 294 288 284 279
311 309 309 309 310 312 315 318 321 324 327 328 327 328 329 328 327 324 324 321 320 318 313 308 305 305 307 309 310 317 318 313 312 303 297 296 294 288
311 313 315 319 322 325 327 328 329 331 330 329 332 332 332 332 332 328 326 325 326 327 326 318 312 309 310 312 314 318 316 312 305 303 299 297 292 289
318 321 325 331 334 333 332 329 329 331 332 334 332 333 337 335 334 334 333 334 334 332 331 326 322 316 314 317 321 324 322 317 315 313 309 304 301 299
326 332 340 343 342 339 335 332 330 330 334 332 333 335 336 337 339 339 339 339 338 336 336 331 328 325 326 328 334 336 328 328 321 318 313 307 303 302
355 356 353 346 341 338 334 332 331 331 330 330 333 335 339 338 339 341 340 338 337 338 341 338 332 330 331 330 332 341 330 326 327 324 320 311 308 307
359 357 348 341 339 335 332 329 329 328 327 327 331 334 334 334 336 337 336 337 337 338 340 340 337 333 330 327 329 336 339 333 334 332 329 323 320 311
357 349 342 337 336 333 329 329 327 326 326 326 326 328 330 331 332 333 334 337 337 338 338 341 340 337 335 334 335 337 339 345 345 344 342 331 326 321
349 342 336 333 332 330 328 325 324 322 323 325 326 328 328 332 332 333 336 337 338 338 338 340 341 340 339 338 338 338 339 347 350 353 354 346 338 327
Height
3073 3071 3071 3070 3068 3069 3067 3067 3064 3060 3058 3060 3056 3053 3046 3042 3037 3031 3026 3022 3017 3013 3009 3005 3000 2996 2991 2986 2981 2976 2971 2968 2964 2963 2960 2959 2957 2956
3064 3064 3058 3059 3057 3057 3057 3056 3054 3050 3043 3042 3041 3038 3033 3028 3024 3017 3013 3008 3003 2998 2993 2988 2984 2979 2973 2968 2963 2959 2954 2951 2950 2947 2945 2945 2944 2943
3053 3050 3050 3049 3048 3048 3047 3046 3043 3039 3033 3031 3027 3023 3018 3014 3010 3004 2999 2993 2989 2984 2978 2973 2967 2961 2955 2950 2945 2941 2938 2937 2935 2934 2932 2932 2931 2930
3043 3041 3032 3042 3039 3037 3036 3033 3031 3028 3022 3017 3014 3009 3004 3000 2994 2989 2985 2979 2972 2967 2962 2957 2950 2943 2938 2933 2929 2927 2926 2925 2923 2921 2920 2919 2918 2917
3030 3029 3029 3029 3028 3026 3026 3025 3021 3016 3011 3005 3000 2996 2991 2987 2981 2975 2969 2964 2959 2953 2949 2942 2934 2928 2924 2921 2917 2916 2914 2912 2911 2908 2905 2904 2903 2904
3022 3020 3021 3022 3021 3019 3016 3013 3008 3004 2999 2994 2988 2983 2978 2973 2966 2959 2953 2949 2942 2939 2936 2927 2920 2916 2914 2910 2907 2904 2902 2899 2896 2894 2891 2891 2890 2889
3013 3014 3014 3014 3012 3009 3004 3002 2997 2993 2987 2981 2976 2970 2965 2957 2951 2945 2938 2932 2928 2924 2921 2916 2909 2907 2904 2900 2897 2895 2892 2888 2884 2881 2879 2878 2877 2876
3009 3009 3008 3006 3001 2998 2994 2990 2985 2979 2974 2968 2962 2955 2950 2943 2936 2929 2922 2916 2913 2912 2907 2906 2898 2897 2892 2889 2888 2885 2882 2877 2872 2870 2867 2865 2864 2863
3003 3001 2999 2996 2991 2987 2983 2979 2974 2968 2963 2955 2948 2943 2936 2929 2921 2917 2911 2906 2902 2900 2894 2891 2887 2884 2882 2879 2877 2873 2869 2864 2861 2857 2854 2851 2850 2848
2995 2994 2990 2985 2981 2977 2972 2967 2963 2958 2951 2944 2938 2933 2925 2919 2913 2906 2901 2895 2892 2890 2886 2876 2875 2872 2869 2869 2867 2863 2858 2854 2849 2844 2840 2837 2836 2835
2990 2983 2979 2976 2971 2966 2961 2955 2950 2945 2938 2933 2927 2920 2914 2909 2903 2897 2893 2887 2883 2880 2881 2868 2865 2859 2856 2857 2856 2853 2849 2844 2838 2834 2830 2826 2824 2822
2980 2974 2969 2965 2961 2954 2947 2942 2937 2932 2926 2922 2917 2912 2907 2903 2898 2891 2885 2879 2874 2867 2871 2859 2856 2850 2841 2843 2840 2839 2836 2832 2827 2823 2818 2814 2812 2808
2971 2967 2961 2954 2948 2942 2936 2931 2925 2920 2916 2912 2908 2905 2901 2897 2892 2887 2881 2874 2867 2861 2861 2849 2844 2840 2833 2825 2825 2826 2822 2820 2815 2811 2808 2804 2800 2797
2960 2956 2950 2944 2938 2932 2926 2920 2916 2912 2908 2905 2902 2898 2894 2891 2886 2880 2875 2869 2862 2855 2852 2845 2835 2831 2824 2819 2813 2815 2812 2808 2802 2799 2795 2792 2789 2786
2950 2944 2938 2932 2926 2921 2916 2913 2910 2906 2903 2900 2897 2893 2889 2884 2879 2873 2869 2862 2857 2851 2845 2838 2829 2824 2818 2811 2803 2802 2798 2796 2793 2787 2783 2780 2778 2776
2940 2933 2927 2922 2916 2912 2909 2906 2904 2901 2898 2895 2892 2888 2883 2879 2873 2866 2860 2855 2850 2846 2840 2832 2825 2817 2811 2806 2798 2794 2792 2782 2782 2778 2773 2770 2768 2766
2929 2924 2918 2914 2910 2907 2904 2902 2900 2898 2895 2892 2887 2883 2879 2874 2868 2862 2855 2849 2843 2836 2833 2827 2820 2812 2806 2799 2793 2790 2782 2778 2774 2769 2764 2761 2759 2756
2920 2915 2912 2909 2907 2905 2903 2900 2898 2895 2892 2888 2884 2879 2875 2870 2864 2858 2850 2844 2837 2831 2825 2819 2812 2806 2802 2798 2787 2781 2777 2769 2765 2760 2755 2747 2745 2746
2914 2911 2909 2907 2905 2903 2901 2899 2896 2893 2890 2886 2882 2877 2872 2867 2860 2854 2847 2839 2833 2826 2820 2813 2806 2797 2788 2782 2784 2776 2762 2759 2753 2749 2745 2739 2734 2733
2911 2909 2908 2906 2904 2901 2899 2896 2894 2891 2887 2883 2879 2874 2869 2863 2857 2850 2843 2835 2828 2822 2815 2809 2801 2794 2785 2776 2769 2769 2764 2753 2746 2739 2734 2728 2724 2721
2909 2908 2906 2904 2902 2900 2897 2895 2892 2889 2885 2881 2876 2871 2866 2860 2854 2847 2840 2832 2824 2817 2810 2804 2798 2790 2783 2775 2768 2763 2758 2751 2743 2734 2726 2718 2714 2711
2908 2907 2905 2904 2901 2898 2896 2893 2889 2886 2882 2878 2873 2868 2863 2857 2850 2843 2835 2828 2820 2812 2806 2799 2792 2785 2778 2770 2763 2756 2750 2746 2740 2730 2722 2714 2706 2699
2908 2906 2905 2902 2900 2897 2894 2890 2887 2883 2879 2875 2870 2865 2859 2853 2846 2839 2831 2824 2815 2807 2800 2793 2788 2781 2774 2766 2759 2752 2746 2739 2732 2726 2720 2711 2703 2695